TimeEDT,TemperatureF,Dew PointF,Humidity,Sea Level PressureIn,VisibilityMPH,Wind Direction,Wind SpeedMPH,Gust SpeedMPH,PrecipitationIn,Events,Conditions,WindDirDegrees,DateUTC
12:56 AM,64.9,62.1,90,29.83,10.0,SSW,4.6,-,N/A,,Mostly Cloudy,210,2013-09-02 04:56:00
1:56 AM,66.0,64.0,93,29.80,10.0,SW,5.8,-,N/A,,Partly Cloudy,230,2013-09-02 05:56:00
2:34 AM,66.2,64.4,94,29.84,7.0,WSW,4.6,-,N/A,,Scattered Clouds,250,2013-09-02 06:34:00
2:46 AM,66.2,64.4,94,29.84,7.0,WSW,4.6,-,N/A,,Mostly Cloudy,250,2013-09-02 06:46:00
2:56 AM,68.0,66.0,93,29.80,7.0,WSW,5.8,-,N/A,,Overcast,250,2013-09-02 06:56:00
3:11 AM,68.0,66.2,94,29.84,6.0,WSW,4.6,-,N/A,,Overcast,240,2013-09-02 07:11:00
3:41 AM,68.0,66.2,94,29.84,7.0,West,3.5,-,N/A,,Overcast,270,2013-09-02 07:41:00
3:56 AM,68.0,66.0,93,29.80,6.0,Calm,Calm,-,N/A,,Overcast,0,2013-09-02 07:56:00
4:56 AM,68.0,66.0,93,29.79,6.0,WSW,3.5,-,N/A,,Overcast,250,2013-09-02 08:56:00
5:25 AM,68.0,66.2,94,29.83,6.0,WSW,4.6,-,N/A,,Overcast,240,2013-09-02 09:25:00
5:56 AM,68.0,66.0,93,29.80,6.0,West,4.6,-,0.02,Rain,Light Rain,260,2013-09-02 09:56:00
6:56 AM,68.0,66.0,93,29.81,5.0,WSW,4.6,-,0.06,Rain,Light Rain,240,2013-09-02 10:56:00
7:14 AM,68.0,66.2,94,29.84,6.0,WSW,3.5,-,0.00,,Mostly Cloudy,240,2013-09-02 11:14:00
7:56 AM,68.0,66.0,93,29.81,5.0,Calm,Calm,-,0.00,,Mostly Cloudy,0,2013-09-02 11:56:00
8:23 AM,68.0,66.2,94,29.84,6.0,SW,4.6,-,N/A,,Mostly Cloudy,220,2013-09-02 12:23:00
8:56 AM,70.0,66.9,90,29.81,7.0,SSW,4.6,-,N/A,,Scattered Clouds,200,2013-09-02 12:56:00
9:11 AM,71.6,66.2,83,29.84,8.0,SSW,8.1,-,N/A,,Partly Cloudy,210,2013-09-02 13:11:00
9:42 AM,71.6,66.2,83,29.85,9.0,SW,8.1,-,N/A,,Mostly Cloudy,220,2013-09-02 13:42:00
9:56 AM,71.1,66.9,87,29.83,9.0,WSW,10.4,-,N/A,,Overcast,240,2013-09-02 13:56:00
10:39 AM,73.4,66.2,78,29.85,9.0,Variable,6.9,-,N/A,,Mostly Cloudy,0,2013-09-02 14:39:00
10:56 AM,72.0,66.0,81,29.81,10.0,SW,6.9,-,N/A,,Mostly Cloudy,220,2013-09-02 14:56:00
11:04 AM,73.4,66.2,78,29.84,10.0,SW,6.9,-,N/A,,Mostly Cloudy,230,2013-09-02 15:04:00
11:12 AM,73.4,66.2,78,29.84,10.0,Variable,4.6,-,N/A,,Mostly Cloudy,0,2013-09-02 15:12:00
11:56 AM,75.0,66.9,76,29.80,10.0,SW,8.1,-,N/A,,Overcast,230,2013-09-02 15:56:00
12:07 PM,75.2,66.2,73,29.84,10.0,Variable,6.9,-,N/A,,Mostly Cloudy,0,2013-09-02 16:07:00
12:51 PM,78.8,66.2,65,29.83,10.0,Variable,6.9,-,N/A,,Mostly Cloudy,0,2013-09-02 16:51:00
12:56 PM,77.0,66.0,69,29.78,10.0,SSW,9.2,-,N/A,,Mostly Cloudy,210,2013-09-02 16:56:00
1:56 PM,77.0,64.0,64,29.78,10.0,SW,9.2,-,N/A,,Partly Cloudy,220,2013-09-02 17:56:00
2:56 PM,73.0,64.0,73,29.76,10.0,SSW,6.9,-,0.00,Rain,Light Rain,200,2013-09-02 18:56:00
3:56 PM,72.0,64.9,78,29.76,10.0,WNW,9.2,-,0.00,,Clear,290,2013-09-02 19:56:00
4:56 PM,73.0,64.9,76,29.77,10.0,West,10.4,-,N/A,,Partly Cloudy,270,2013-09-02 20:56:00
5:56 PM,71.1,64.0,78,29.77,10.0,West,8.1,-,N/A,,Scattered Clouds,270,2013-09-02 21:56:00
6:56 PM,70.0,63.0,78,29.77,10.0,West,5.8,-,N/A,,Partly Cloudy,270,2013-09-02 22:56:00
7:56 PM,69.1,63.0,81,29.79,10.0,WNW,12.7,-,N/A,,Mostly Cloudy,300,2013-09-02 23:56:00
8:56 PM,66.9,61.0,81,29.80,10.0,WNW,12.7,16.1,N/A,,Mostly Cloudy,300,2013-09-03 00:56:00
9:34 PM,64.4,60.8,88,29.83,10.0,NW,12.7,-,N/A,,Scattered Clouds,310,2013-09-03 01:34:00
9:56 PM,64.0,59.0,84,29.81,10.0,NW,12.7,-,N/A,,Clear,310,2013-09-03 01:56:00
10:56 PM,63.0,57.9,84,29.83,10.0,WNW,13.8,-,N/A,,Scattered Clouds,300,2013-09-03 02:56:00
11:16 PM,62.6,57.2,82,29.87,10.0,NW,10.4,-,N/A,,Mostly Cloudy,310,2013-09-03 03:16:00
11:33 PM,60.8,57.2,88,29.86,10.0,NW,8.1,-,N/A,,Scattered Clouds,310,2013-09-03 03:33:00
11:51 PM,60.8,57.2,88,29.87,10.0,NW,8.1,-,N/A,,Mostly Cloudy,310,2013-09-03 03:51:00
11:56 PM,61.0,57.0,87,29.84,10.0,NW,5.8,-,N/A,,Mostly Cloudy,310,2013-09-03 03:56:00